Other Surface Observations
Issued by NWS

Current Version | Previous Version | Text Only | Print | Product List | Glossary On
Versions: 1 2 3 4 5 6 7 8 9 10 11 12 13 14 15 16 17 18 19 20 21 22 23 24 25 26 27 28 29 30 31 32 33 34 35 36 37 38 39 40 41 42 43 44 45 46 47 48 49 50
000
SXUS52 KTAE 231918
OSOTAE
OSOTAE
North Florida/South Alabama/Southwest Georgia Weather Roundup
National Weather Service Tallahassee Florida
300 PM EDT THU OCT 23 2014

Note: "fair" indicates few or no clouds below 12,000 feet with no
significant weather and/or obstructions to visibility.

!FLZ017-115-028-034-025-232000
...North Florida...

CITY           SKY/WX    TMP DP  RH WIND       PRES   REMARKS
TALLAHASSEE    SUNNY     76  38  25 NE8       30.01F
APALACHICOLA   SUNNY     77  46  33 E10       30.00F
PERRY          SUNNY     73  37  27 NE6       30.01F
CROSS CITY       N/A     76  46  34 NE7       29.99F
JACKSONVILLE   MOSUNNY   72  48  42 NE6       30.00F
$$

!FLZ112-006-005-002-011-232000
...Florida Panhandle...

CITY           SKY/WX    TMP DP  RH WIND       PRES   REMARKS
MARIANNA       SUNNY     74  42  31 NE10      30.03F
BONIFAY        NOT AVBL
PANAMA CITY NW FAIR      78  43  28 N7        30.01F
TYNDALL AFB    SUNNY     75  48  38 VRB3      30.02F
TYND DRONE APT FAIR      74  47  37 MISG      30.01F
DE FUNIAK SPR  FAIR      72  41  31 NE6       30.04F
EGLIN AFB      MOSUNNY   74  48  39 S9        30.03F
DESTIN         SUNNY     74  45  35 CALM      30.03F
HURLBURT       SUNNY     73  41  32 CALM      30.02F
CRESTVIEW      SUNNY     75  45  34 CALM      30.04F
PENSACOLA      SUNNY     72  41  32 CALM      30.04F
$$

!ALZ063-066-232000
...South Alabama...

CITY           SKY/WX    TMP DP  RH WIND       PRES   REMARKS
DOTHAN         SUNNY     73  42  32 NW5       30.08F
OZARK CAIRNS   SUNNY     72  44  35 NE8       30.04F
FT RUCKER HELI SUNNY     73  42  32 NE8       30.04F
RUCKER HELI 3  FAIR      72  43  35 VRB3      30.07F
RUCKER HELI 2  FAIR      72  42  34 VRB3      30.04F
FLORALA APT    SUNNY     74  42  31 VRB6      30.05F
ANDALUSIA      SUNNY     78  39  24 NE5       30.04F
TROY           SUNNY     72  42  34 W5        30.06F
EUFALA         FAIR      73  42  32 CALM      30.04F
MOBILE         MOSUNNY   73  45  36 NE7       30.06F
$$

!GAZ120>161-232000
...Southwest and South Central Georgia...

CITY           SKY/WX    TMP DP  RH WIND       PRES   REMARKS
THOMASVILLE    FAIR      73  43  33 NE7       30.03F
BAINBRIDGE     SUNNY     79  46  31 NE7       30.03F
MOODY AFB      SUNNY     73  40  30 VRB7      30.02F
VALDOSTA       SUNNY     75  38  26 N5        30.01F
MOULTRIE       SUNNY     72  43  35 N8        30.03F
BLAKELY        SUNNY     73  43  33 CALM        N/A
ALBANY         SUNNY     72  44  36 VRB5      30.05F
TIFTON         FAIR      70  41  34 NE6       30.02F
FITZGERALD     FAIR      72  39  29 NE3       30.05F
CORDELE        FAIR      71  41  33 CALM      30.04F
AMERICUS       FAIR      68  45  42 NW5       30.05F
HOMERVILLE     FAIR      73  45  35 NE5       30.02F
$$

!GMZ750-755-770-775-232000
...Coastal and Buoy Obs...

STATION/POSITION TIME  TEMP    WIND        PRES    VSBY  WAVE
                       AIR SEA DIR/SP/G                  HT/PER
                 (UTC) (F)     (DEG/KT/KT) (MB)    (MI)  (FT/S)
KEATON BEACH     1900   73      30/  6/ 10 1015.9F
CEDAR KEY        1900   73      70/  7/  8 1015.2F
C TOWER          1900   68      60/ 12/ 14 1016.0F
APALACHICOLA BUO 1900   71 81   60/ 12/ 16 1015.1F         4/ 6
PANAMA CITY BUOY 1814   71 80   70/ 14/ 23 1016.0          5/ 6
MOBILE BUOY      1758   72 80   80/ 10/ 14 1017.4          3/ 6
ORANGE BCH AL BU 1900   69 78   50/  8/ 12 1017.2F         3/ 5
$$



USA.gov is the U.S. government's official web portal to all federal, state and local government web resources and services.